This is the latest recevied weather packets stored in our database for station/object SR5NLK-1. If no packets are shown the sender has not sent any weather packets the latest 10 day(s).
| Time | Temp. | Humidity | Pressure | Rain* | Wind** | Luminosity | Snow |
|---|---|---|---|---|---|---|---|
| 1788076120 | 31.11° C | 40% | 1039.9 hPa | 0 mm | - | - | - |
| 1788076115 | 31.67° C | 40% | 1080 hPa | 0 mm | - | - | - |
| 1788076054 | 31.11° C | 40% | 1039.9 hPa | 0 mm | - | - | - |
| 1788075956 | 30.56° C | 42% | 1062.7 hPa | 0 mm | - | - | - |
| 1788075919 | 31.67° C | 41% | 1083.3 hPa | 0 mm | - | - | - |
| 1788075892 | 31.11° C | 40% | 1039.9 hPa | 0 mm | - | - | - |
| 1788075808 | 31.67° C | 41% | 1083.3 hPa | 0 mm | - | - | - |
| 1788075769 | 32.22° C | 41% | 1041.7 hPa | 0 mm | - | - | - |
| 1788075750 | 31.67° C | 42% | 1011.4 hPa | 0 mm | - | - | - |
| 1788075704 | 31.67° C | 43% | 1059.5 hPa | 0 mm | - | - | - |
| 1788075688 | 31.11° C | 43% | 1043.8 hPa | 0 mm | - | - | - |
| 1788075592 | 31.67° C | 40% | 1080 hPa | 0 mm | - | - | - |
| 1788075292 | 31.67° C | 41% | 1071.9 hPa | 0 mm | - | - | - |
| 1788075231 | 31.67° C | 41% | 1068.9 hPa | 0 mm | - | - | - |
| 1788075118 | 32.78° C | 42% | 1066.8 hPa | 0 mm | - | - | - |
| 1788075060 | 32.78° C | 42% | 1066.8 hPa | 0 mm | - | - | - |
| 1788074992 | 31.11° C | 42% | 1053.2 hPa | 0 mm | - | - | - |
| 1788074916 | 32.22° C | 44% | 1076.6 hPa | 0 mm | - | - | - |
| 1788074693 | 30.56° C | 42% | 1062.7 hPa | 0 mm | - | - | - |
| 1788074632 | 30.56° C | 47% | 1043.7 hPa | 0 mm | - | - | - |
| 1788074392 | 30.56° C | 42% | 1065.8 hPa | 0 mm | - | - | - |
| 1788074204 | 30° C | 48% | 1059.9 hPa | 0 mm | - | - | - |
| 1788074124 | 30° C | 48% | 1059.9 hPa | 0 mm | - | - | - |
| 1788074092 | 31.67° C | 41% | 1083.3 hPa | 0 mm | - | - | - |
| 1788073792 | 32.22° C | 41% | 1041.7 hPa | 0 mm | - | - | - |
* Rain latest hour (hover to see other rain measurements)
** Current wind speed in m/s (hover to see current wind gust speed)